When you browse on this site, cookies collect data to enhance your experience and personalize the content and advertising you see.
Visit our Privacy Policy to learn more. By continuing to use the site, you agree to this use of cookies and data.
  • In Austria
  • List of Countries
  • For 7 days
  • Water Temperature
  • Weather Map
  • News
  • Weather Widgets
  • user-avatar
    Login

    Hourly Weather Etchmiadzin

    Today, 23 August, Friday

    Time Temperature Precipitation Wind Pressure Humidity
    00:00 +24°C° 0 mm 3 mps 685 mmHg 37%
    01:00 +22°C° 0 mm 3 mps 685 mmHg 38%
    02:00 +23°C° 0 mm 2 mps 685 mmHg 39%
    03:00 +21°C° 0 mm 2 mps 685 mmHg 41%
    04:00 +21°C° 0 mm 2 mps 685 mmHg 41%
    05:00 +21°C° 0 mm 2 mps 685 mmHg 41%
    06:00 +21°C° 0 mm 2 mps 685 mmHg 40%
    07:00 +25°C° 0 mm 2 mps 686 mmHg 34%
    08:00 +28°C° 0 mm 2 mps 686 mmHg 28%
    09:00 +31°C° 0 mm 2 mps 687 mmHg 23%
    10:00 +34°C° 0 mm 2 mps 687 mmHg 20%
    11:00 +36°C° 0 mm 3 mps 687 mmHg 17%
    12:00 +38°C° 0 mm 4 mps 687 mmHg 14%
    13:00 +40°C° 0 mm 4 mps 686 mmHg 13%
    14:00 +41°C° 0 mm 4 mps 686 mmHg 11%
    15:00 +42°C° 0 mm 4 mps 686 mmHg 10%
    16:00 +40°C° 0 mm 5 mps 686 mmHg 14%
    17:00 +38°C° 0 mm 6 mps 686 mmHg 18%
    18:00 +37°C° 0 mm 8 mps 685 mmHg 22%
    19:00 +33°C° 0 mm 6 mps 685 mmHg 29%
    20:00 +29°C° 0 mm 4 mps 686 mmHg 35%
    21:00 +26°C° 0 mm 3 mps 686 mmHg 41%
    22:00 +25°C° 0 mm 3 mps 686 mmHg 42%
    23:00 +25°C° 0 mm 2 mps 685 mmHg 44%

    Tomorrow, 24 August, Saturday

    Time Temperature Precipitation Wind Pressure Humidity
    00:00 +24°C° 0 mm 2 mps 685 mmHg 45%
    01:00 +23°C° 0 mm 2 mps 685 mmHg 47%
    02:00 +23°C° 0 mm 2 mps 685 mmHg 48%
    03:00 +22°C° 0 mm 1 mps 685 mmHg 49%
    04:00 +22°C° 0 mm 1 mps 686 mmHg 48%
    05:00 +22°C° 0 mm 1 mps 686 mmHg 48%
    06:00 +22°C° 0 mm 1 mps 686 mmHg 47%
    07:00 +25°C° 0 mm 1 mps 687 mmHg 41%
    08:00 +28°C° 0 mm 1 mps 687 mmHg 34%
    09:00 +31°C° 0 mm 1 mps 688 mmHg 28%
    10:00 +34°C° 0 mm 2 mps 688 mmHg 24%
    11:00 +35°C° 0 mm 2 mps 688 mmHg 21%
    12:00 +37°C° 0 mm 2 mps 688 mmHg 18%
    13:00 +38°C° 0 mm 2 mps 688 mmHg 17%
    14:00 +39°C° 0 mm 1 mps 687 mmHg 15%
    15:00 +39°C° 0 mm 1 mps 687 mmHg 14%
    16:00 +38°C° 0.1 mm 3 mps 687 mmHg 18%
    17:00 +36°C° 0.1 mm 4 mps 687 mmHg 22%
    18:00 +34°C° 0.1 mm 6 mps 687 mmHg 26%
    19:00 +32°C° 0.1 mm 5 mps 687 mmHg 34%
    20:00 +28°C° 0.1 mm 5 mps 688 mmHg 42%
    21:00 +25°C° 0.1 mm 4 mps 688 mmHg 50%
    22:00 +24°C° 0 mm 3 mps 688 mmHg 52%
    23:00 +24°C° 0 mm 3 mps 687 mmHg 54%

    Day after tomorrow, 25 August, Sunday

    Time Temperature Precipitation Wind Pressure Humidity
    00:00 +23°C° 0 mm 2 mps 687 mmHg 56%
    01:00 +21°C° 0 mm 2 mps 687 mmHg 57%
    02:00 +21°C° 0 mm 2 mps 687 mmHg 58%
    03:00 +22°C° 0 mm 1 mps 687 mmHg 58%
    04:00 +22°C° 0 mm 1 mps 687 mmHg 58%
    05:00 +22°C° 0 mm 1 mps 687 mmHg 58%
    06:00 +22°C° 0 mm 1 mps 687 mmHg 58%
    07:00 +24°C° 0 mm 1 mps 687 mmHg 50%
    08:00 +27°C° 0 mm 1 mps 687 mmHg 43%
    09:00 +29°C° 0 mm 2 mps 688 mmHg 35%
    10:00 +31°C° 0 mm 2 mps 688 mmHg 31%
    11:00 +34°C° 0 mm 2 mps 688 mmHg 27%
    12:00 +36°C° 0 mm 2 mps 688 mmHg 22%
    13:00 +37°C° 0 mm 2 mps 687 mmHg 20%
    14:00 +38°C° 0 mm 2 mps 687 mmHg 19%
    15:00 +39°C° 0 mm 2 mps 687 mmHg 17%
    16:00 +38°C° 0 mm 2 mps 687 mmHg 18%
    17:00 +37°C° 0 mm 2 mps 687 mmHg 20%
    18:00 +36°C° 0 mm 2 mps 686 mmHg 22%
    19:00 +34°C° 0 mm 3 mps 686 mmHg 28%
    20:00 +30°C° 0 mm 4 mps 687 mmHg 34%
    21:00 +28°C° 0 mm 4 mps 687 mmHg 40%
    22:00 +27°C° 0 mm 3 mps 687 mmHg 42%
    23:00 +26°C° 0 mm 3 mps 687 mmHg 44%

    26 August, Monday

    Time Temperature Precipitation Wind Pressure Humidity
    00:00 +25°C° 0 mm 2 mps 687 mmHg 46%
    01:00 +25°C° 0 mm 2 mps 686 mmHg 47%
    02:00 +24°C° 0 mm 2 mps 686 mmHg 48%
    03:00 +24°C° 0 mm 1 mps 686 mmHg 49%
    04:00 +24°C° 0 mm 1 mps 686 mmHg 49%
    05:00 +24°C° 0 mm 1 mps 687 mmHg 48%
    06:00 +24°C° 0 mm 1 mps 687 mmHg 47%
    07:00 +26°C° 0 mm 1 mps 687 mmHg 42%
    08:00 +29°C° 0 mm 1 mps 687 mmHg 36%
    09:00 +32°C° 0 mm 1 mps 688 mmHg 30%
    10:00 +34°C° 0 mm 2 mps 687 mmHg 27%
    11:00 +36°C° 0 mm 2 mps 687 mmHg 23%
    12:00 +38°C° 0 mm 3 mps 687 mmHg 20%
    13:00 +38°C° 0 mm 3 mps 687 mmHg 18%
    14:00 +39°C° 0 mm 3 mps 687 mmHg 17%
    15:00 +40°C° 0 mm 2 mps 686 mmHg 15%
    16:00 +38°C° 0.1 mm 3 mps 686 mmHg 19%
    17:00 +37°C° 0.1 mm 4 mps 686 mmHg 24%
    18:00 +35°C° 0.1 mm 5 mps 686 mmHg 28%
    19:00 +33°C° 0.1 mm 5 mps 687 mmHg 34%
    20:00 +29°C° 0.1 mm 5 mps 687 mmHg 39%
    21:00 +27°C° 0.1 mm 4 mps 687 mmHg 45%
    22:00 +26°C° 0 mm 4 mps 687 mmHg 47%
    23:00 +25°C° 0 mm 3 mps 687 mmHg 49%

    27 August, Tuesday

    Time Temperature Precipitation Wind Pressure Humidity
    00:00 +24°C° 0 mm 3 mps 687 mmHg 52%
    01:00 +24°C° 0 mm 2 mps 687 mmHg 54%
    02:00 +23°C° 0 mm 2 mps 687 mmHg 57%
    03:00 +22°C° 0 mm 1 mps 686 mmHg 59%
    04:00 +22°C° 0 mm 1 mps 687 mmHg 59%
    05:00 +22°C° 0 mm 1 mps 687 mmHg 59%
    06:00 +22°C° 0 mm 1 mps 687 mmHg 59%
    07:00 +24°C° 0 mm 1 mps 687 mmHg 51%
    08:00 +27°C° 0 mm 1 mps 687 mmHg 44%
    09:00 +29°C° 0 mm 2 mps 687 mmHg 36%
    10:00 +31°C° 0 mm 2 mps 687 mmHg 31%
    11:00 +34°C° 0 mm 2 mps 687 mmHg 27%
    12:00 +35°C° 0 mm 3 mps 687 mmHg 22%
    13:00 +36°C° 0 mm 3 mps 687 mmHg 20%
    14:00 +38°C° 0 mm 3 mps 686 mmHg 18%
    15:00 +39°C° 0 mm 3 mps 686 mmHg 16%
    16:00 +37°C° 0 mm 4 mps 686 mmHg 20%
    17:00 +36°C° 0 mm 5 mps 686 mmHg 24%
    18:00 +34°C° 0 mm 6 mps 685 mmHg 28%
    19:00 +30°C° 0 mm 5 mps 685 mmHg 35%
    20:00 +28°C° 0 mm 4 mps 685 mmHg 42%
    21:00 +25°C° 0 mm 4 mps 685 mmHg 49%
    22:00 +24°C° 0 mm 3 mps 685 mmHg 51%
    23:00 +24°C° 0 mm 3 mps 685 mmHg 54%

    28 August, Wednesday

    Time Temperature Precipitation Wind Pressure Humidity
    00:00 +22°C° 0 mm 3 mps 685 mmHg 56%
    01:00 +21°C° 0 mm 3 mps 685 mmHg 58%
    02:00 +21°C° 0 mm 2 mps 685 mmHg 60%
    03:00 +20°C° 0 mm 2 mps 685 mmHg 63%
    04:00 +20°C° 0 mm 2 mps 685 mmHg 63%
    05:00 +20°C° 0 mm 2 mps 685 mmHg 63%
    06:00 +20°C° 0 mm 2 mps 685 mmHg 63%
    07:00 +23°C° 0 mm 2 mps 686 mmHg 55%
    08:00 +26°C° 0 mm 2 mps 686 mmHg 47%
    09:00 +28°C° 0 mm 2 mps 687 mmHg 39%
    10:00 +30°C° 0 mm 2 mps 687 mmHg 33%
    11:00 +32°C° 0 mm 2 mps 687 mmHg 28%
    12:00 +35°C° 0 mm 2 mps 687 mmHg 23%
    13:00 +36°C° 0 mm 2 mps 687 mmHg 21%
    14:00 +37°C° 0 mm 2 mps 686 mmHg 18%
    15:00 +38°C° 0 mm 2 mps 686 mmHg 16%
    16:00 +37°C° 0 mm 3 mps 686 mmHg 19%
    17:00 +36°C° 0 mm 3 mps 686 mmHg 22%
    18:00 +35°C° 0 mm 4 mps 686 mmHg 24%
    19:00 +32°C° 0 mm 4 mps 686 mmHg 31%
    20:00 +29°C° 0 mm 4 mps 686 mmHg 38%
    21:00 +26°C° 0 mm 4 mps 686 mmHg 45%
    22:00 +25°C° 0 mm 3 mps 687 mmHg 48%
    23:00 +24°C° 0 mm 3 mps 687 mmHg 50%
    Show more